{"data":{"norad_id":55603,"intl_designator":"2023-020AL","name":"STARLINK-5735","alt_names":[],"object_type":"PAYLOAD","status":"ACTIVE","operator":null,"country":"US","launch_date":"2023-02-12","launch_site_code":"AFETR","launch_vehicle":null,"mission":null,"orbit_class":"UNKNOWN","rcs_meters":null,"size_class":null,"mass_kg":null,"dimensions":null,"purposes":["comms"],"wikipedia_slug":null,"has_3d_model":false,"image_url":null,"decayed_at":null,"tle_current":{"epoch":"2026-09-20T11:47:30.820416Z","epoch_age_seconds":101168,"freshness":"FRESH","line1":"1 55603U 23020AL  26263.49132894 -.00000014  00000+0  90133-5 0  9991","line2":"2 55603  43.0036 333.9304 0001196 280.1030  79.9686 15.27576134198838","mean_motion":15.27576134,"eccentricity":0.0001196,"inclination_deg":43.0036,"raan_deg":333.9304,"arg_perigee_deg":280.103,"mean_anomaly_deg":79.9686,"bstar":9.0133e-6,"rev_number":19883,"period_min":94.266987284576,"perigee_km":482.24007301725,"apogee_km":483.88127150046,"semimajor_km":6861.1976722589,"source":"CELESTRAK","updated_at":"2026-09-21T09:00:33.272373Z"}}}